STARLINK-2672, 48650

Orbit data source: Space-Track

STARLINK-2672, 48650 is a payload satellite owned by SpaceX/Seattle (US) in LEO that was launched on Wed, 26 May 2021 UTC via an FALCON 9 launch vehicle from the Air Force Eastern Test Range (AFETR). Payload-class satellites include a variety of spacecraft equipped with specific instruments for various scientific and technological missions. These include communications satellites like Starlink; space stations such as the ISS; scientific satellites like the Hubble; Earth observation satellites from companies like Planet Labs, Umbra, and HawkEye 360; GPS; miniature CubeSats for education and research; and military/defense satellites.

Loading next visibility...
Identifier
48650, 2021-044N
Orbit
LEO
Country
Flag of USUS
Related business
Manufacturer
SpaceX/Seattle
Mission
Operational Commercial Communications
Bus & Motor
STARLINK, Unknown motor
Mass
260 kg wet, ~248 kg dry
Launch date (UTC)
2021-05-26 (5 years ago)
Launch vehicle
FALCON 9
Launch site
Air Force Eastern Test Range (AFETR)
Object type
Payload
Rocket body
Debris
Shape & HBR
Box + 1 Pan, 10.1 m
Radar Cross Section
13.562 m², Large (>1 m²)

Expand to show TLE details & history
Last TLE update: 3 days ago

TLE from 3 days ago
0 STARLINK-2672
1 48650U 21044N   26170.92214747  .00000649  00000-0  32656-4 0  9991
2 48650  53.1604 358.3460 0000960  83.8412 276.2699 15.31705999279484
Epoch: 2026-06-19T22:07Z
TLE epoch observation values (Epoch: 2026-06-19T22:07:53.541Z)
Latitude
Longitude
118.22874°
Altitude
471.551 km
Speed
7.632 km/s
True Right ascension
23h 53m 23s
True Declination
0° 00' 00"
Sunlit
Object was in daylight at epoch
Visualization orbit readout
Latitude
Unknown
Longitude
Unknown
Altitude
Unknown
Speed
Unknown
Apparent Right ascension
Unknown
Apparent Declination
Unknown
Sunlit
N/A
Visualization observer readout
Local Sidereal Time
21:40:47
Azimuth
Unknown
Elevation
Unknown
Doppler factor
Unknown
Orbital elements
Apogee altitude
471.636 km
Perigee altitude
470.321 km
Semi-major axis
6,849.116 km
Eccentricity
0.0001
Inclination
53.1604°
RAAN
358.346°
Arg. of periapsis
83.8412°
True anomaly
276.25896°
Mean anomaly
276.2699°
Eccentric anomaly
276.26443°
Mean motion
3.82905 °/min
Orbital period
94.02 mins
BSTAR
0.000032656
Loading maneuver chart data...
Computing Atmospheric mass density...

Documentation

Showing up to 5 results
|